CW0262 Weather Reports


time (UTC)temp
C
wind
direction
speed
KPH
gust
KPH
rain 1hr
cm
rain 24hr
cm
rain mn
cm
humidity
%
barometer
mb
20260502130704 31 213 14.5 20.9 0.00 0.00 0.00 61 1010.0
20260502130204 30 225 11.3 20.9 0.00 0.00 0.00 63 1010.0
20260502123704 27 216 11.3 16.1 0.00 0.00 0.00 74 1010.0
20260502123204 27 207 9.7 16.1 0.00 0.00 0.00 74 1010.0
20260502121704 26 217 9.7 12.9 0.00 0.00 0.00 78 1010.0
20260502121204 25 190 8.0 9.7 0.00 0.00 0.00 81 1010.0
20260502120705 25 212 4.8 8.0 0.00 0.00 0.00 82 1010.0
20260502120204 25 217 6.4 11.3 0.00 0.00 0.00 82 1010.0
20260502114703 23 229 4.8 9.7 0.00 0.00 0.00 85 1010.0
20260502114204 23 237 3.2 4.8 0.00 0.00 0.00 86 1010.0
20260502113704 23 229 3.2 4.8 0.00 0.00 0.00 86 1010.0
20260502113204 23 234 4.8 8.0 0.00 0.00 0.00 86 1010.0
20260502111703 22 237 3.2 4.8 0.00 0.00 0.00 89 1010.0
20260502111204 22 224 4.8 9.7 0.00 0.00 0.00 89 1010.0
20260502110704 21 236 3.2 4.8 0.00 0.00 0.00 90 1010.0
20260502110204 21 231 4.8 9.7 0.00 0.00 0.00 90 1010.0
20260502104704 21 231 4.8 4.8 0.00 0.00 0.00 90 1010.0
20260502104204 21 232 1.6 9.7 0.00 0.00 0.00 90 1010.0
20260502101704 21 231 4.8 9.7 0.00 0.00 0.00 91 1010.0
20260502101204 21 233 3.2 8.0 0.00 0.00 0.00 91 1010.0
20260502100705 21 231 3.2 4.8 0.00 0.00 0.00 92 1010.0
20260502100204 21 247 4.8 9.7 0.00 0.00 0.00 92 1010.0
20260502091204 22 234 8.0 9.7 0.00 0.00 0.00 91 1010.0
20260502090705 22 213 4.8 9.7 0.00 0.00 0.00 90 1010.0
20260502090204 22 197 4.8 9.7 0.00 0.00 0.00 90 1010.0
20260502071204 23 234 9.7 12.9 0.00 0.00 0.00 89 1010.0
20260502070704 23 232 9.7 12.9 0.00 0.00 0.00 89 1010.0
20260502070205 23 219 8.0 11.3 0.00 0.00 0.00 89 1010.0
20260502064703 23 224 6.4 9.7 0.00 0.00 0.00 89 1010.0
20260502063703 23 239 8.0 9.7 0.00 0.00 0.00 88 1010.0
20260502063203 23 231 6.4 9.7 0.00 0.00 0.00 87 1010.0
20260502061704 23 227 3.2 8.0 0.00 0.00 0.00 87 1010.0
20260502061204 23 226 4.8 4.8 0.00 0.00 0.00 86 1010.0
20260502060704 23 219 4.8 4.8 0.00 0.00 0.00 86 1010.0
20260502060204 23 241 4.8 8.0 0.00 0.00 0.00 86 1010.0
20260502054704 24 232 0.0 4.8 0.00 0.00 0.00 85 1010.0
20260502054204 24 237 1.6 4.8 0.00 0.00 0.00 85 1010.0
20260502053704 24 238 1.6 4.8 0.00 0.00 0.00 85 1010.0
20260502053205 24 230 1.6 4.8 0.00 0.00 0.00 85 1010.0
20260502051704 24 234 3.2 4.8 0.00 0.00 0.00 84 1010.0
20260502051204 24 243 3.2 4.8 0.00 0.00 0.00 83 1010.0
20260502050704 25 265 4.8 8.0 0.00 0.00 0.00 83 1010.0
20260502050204 25 258 4.8 8.0 0.00 0.00 0.00 83 1010.0
20260502044704 25 228 4.8 8.0 0.00 0.00 0.00 81 1010.0
20260502044204 25 228 4.8 9.7 0.00 0.00 0.00 81 1010.0
20260502043703 25 221 4.8 4.8 0.00 0.00 0.00 81 1010.0
20260502043204 25 220 4.8 9.7 0.00 0.00 0.00 81 1010.0
20260502041705 25 228 8.0 9.7 0.00 0.00 0.00 80 1010.0
20260502041204 25 234 4.8 9.7 0.00 0.00 0.00 80 1010.0
20260502040704 25 228 8.0 9.7 0.00 0.00 0.00 80 1010.0
20260502040204 25 219 4.8 9.7 0.00 0.00 0.00 79 1010.0
20260502034204 25 217 8.0 12.9 0.00 0.00 0.00 79 1010.0
20260502033704 26 221 8.0 9.7 0.00 0.00 0.00 79 1010.0
20260502033204 26 214 9.7 12.9 0.00 0.00 0.00 79 1010.0
20260502031704 26 198 8.0 11.3 0.00 0.00 0.00 78 1010.0
20260502030204 26 219 9.7 14.5 0.00 0.00 0.00 77 1010.0
20260502024205 26 185 9.7 12.9 0.00 0.00 0.00 76 1010.0
20260502023703 26 171 9.7 14.5 0.00 0.00 0.00 76 1010.0
20260502023205 26 186 9.7 16.1 0.00 0.00 0.00 75 1010.0
20260502021704 26 154 9.7 12.9 0.00 0.00 0.00 74 1010.0
20260502021204 26 200 8.0 12.9 0.00 0.00 0.00 73 1010.0
20260502020706 26 163 9.7 14.5 0.00 0.00 0.00 73 1010.0
20260502020204 26 193 9.7 14.5 0.00 0.00 0.00 73 1010.0
20260502014704 27 170 8.0 11.3 0.00 0.00 0.00 73 1010.0
20260502014204 27 168 8.0 12.9 0.00 0.00 0.00 73 1010.0
20260502013703 27 184 6.4 9.7 0.00 0.00 0.00 72 1010.0
20260502013204 27 172 8.0 14.5 0.00 0.00 0.00 72 1010.0
20260502011704 27 181 9.7 14.5 0.00 0.00 0.00 71 1009.0
20260502011204 27 173 9.7 12.9 0.00 0.00 0.00 71 1009.0
20260502010704 27 156 9.7 12.9 0.00 0.00 0.00 70 1009.0
20260502010204 27 169 9.7 16.1 0.00 0.00 0.00 70 1009.0
20260502004704 27 167 9.7 16.1 0.00 0.00 0.00 68 1009.0
20260502004204 28 170 9.7 16.1 0.00 0.00 0.00 68 1009.0
20260502003704 28 176 9.7 14.5 0.00 0.00 0.00 68 1009.0
20260502003205 28 184 9.7 20.9 0.00 0.00 0.00 68 1009.0
20260502001704 28 158 11.3 16.1 0.00 0.00 0.00 65 1008.0
20260502001204 28 163 8.0 16.1 0.00 0.00 0.00 64 1008.0
20260502000204 29 155 9.7 19.3 0.00 0.00 0.00 61 1008.0
20260501234704 30 155 9.7 12.9 0.00 0.00 0.00 59 1008.0
20260501234203 31 143 9.7 12.9 0.00 0.00 0.00 57 1008.0
20260501233704 31 131 9.7 12.9 0.00 0.00 0.00 54 1008.0
20260501233203 32 158 6.4 9.7 0.00 0.00 0.00 46 1008.0
20260501231704 32 232 9.7 12.9 0.00 0.00 0.00 46 1008.0
20260501231204 32 230 11.3 14.5 0.00 0.00 0.00 45 1008.0
20260501230704 32 243 8.0 14.5 0.00 0.00 0.00 44 1008.0
20260501230204 32 208 8.0 16.1 0.00 0.00 0.00 44 1008.0
20260501224704 33 217 11.3 12.9 0.00 0.00 0.00 42 1008.0
20260501224204 33 240 11.3 12.9 0.00 0.00 0.00 42 1008.0
20260501223704 33 227 12.9 19.3 0.00 0.00 0.00 41 1008.0
20260501223205 33 228 16.1 20.9 0.00 0.00 0.00 41 1008.0
20260501221704 34 237 14.5 16.1 0.00 0.00 0.00 40 1007.0
20260501221203 34 248 12.9 20.9 0.00 0.00 0.00 40 1008.0
20260501220705 34 247 11.3 16.1 0.00 0.00 0.00 40 1008.0
20260501220204 35 245 11.3 20.9 0.00 0.00 0.00 40 1008.0
20260501214204 35 224 8.0 19.3 0.00 0.00 0.00 39 1008.0
20260501213704 35 256 14.5 20.9 0.00 0.00 0.00 39 1008.0
20260501213206 35 240 9.7 19.3 0.00 0.00 0.00 39 1008.0
20260501211204 35 226 8.0 16.1 0.00 0.00 0.00 39 1008.0
20260501210704 35 223 11.3 16.1 0.00 0.00 0.00 39 1008.0
20260501210203 35 257 12.9 20.9 0.00 0.00 0.00 39 1008.0
20260501204704 35 239 8.0 16.1 0.00 0.00 0.00 39 1008.0
20260501203703 36 225 6.4 16.1 0.00 0.00 0.00 38 1008.0
20260501203205 36 200 9.7 20.9 0.00 0.00 0.00 38 1008.0
20260501201205 36 248 16.1 20.9 0.00 0.00 0.00 37 1009.0
20260501200704 36 231 8.0 14.5 0.00 0.00 0.00 37 1009.0
20260501200204 36 219 9.7 24.1 0.00 0.00 0.00 37 1009.0
20260501194705 36 225 14.5 24.1 0.00 0.00 0.00 37 1009.0
20260501194204 36 205 14.5 20.9 0.00 0.00 0.00 37 1009.0
20260501193705 36 210 12.9 20.9 0.00 0.00 0.00 37 1009.0
20260501193204 36 219 14.5 20.9 0.00 0.00 0.00 37 1009.0
20260501191704 36 233 12.9 19.3 0.00 0.00 0.00 38 1009.0
20260501191205 36 236 11.3 19.3 0.00 0.00 0.00 38 1010.0
20260501190705 36 236 11.3 20.9 0.00 0.00 0.00 38 1010.0
20260501190205 36 247 9.7 20.9 0.00 0.00 0.00 37 1010.0
20260501184705 36 255 11.3 16.1 0.00 0.00 0.00 38 1010.0
20260501183704 36 220 9.7 19.3 0.00 0.00 0.00 39 1010.0
20260501183204 36 255 12.9 24.1 0.00 0.00 0.00 40 1010.0
20260501181704 36 297 11.3 29.0 0.00 0.00 0.00 40 1010.0
20260501181205 36 211 4.8 12.9 0.00 0.00 0.00 39 1010.0
20260501180704 36 269 9.7 19.3 0.00 0.00 0.00 40 1010.0
20260501180203 36 231 16.1 20.9 0.00 0.00 0.00 40 1010.0
20260501174704 36 232 12.9 22.5 0.00 0.00 0.00 43 1010.0
20260501174205 36 247 9.7 20.9 0.00 0.00 0.00 42 1010.0
20260501173704 35 246 9.7 19.3 0.00 0.00 0.00 43 1010.0
20260501173205 35 274 14.5 20.9 0.00 0.00 0.00 43 1010.0
20260501171705 35 295 4.8 19.3 0.00 0.00 0.00 45 1010.0
20260501171205 35 277 9.7 20.9 0.00 0.00 0.00 45 1011.0
20260501170704 35 279 11.3 19.3 0.00 0.00 0.00 45 1011.0
20260501170203 35 290 8.0 16.1 0.00 0.00 0.00 45 1011.0
20260501164704 35 246 12.9 20.9 0.00 0.00 0.00 46 1011.0
20260501164204 35 226 11.3 19.3 0.00 0.00 0.00 45 1011.0
20260501163704 35 266 8.0 14.5 0.00 0.00 0.00 45 1011.0
20260501163204 35 242 6.4 19.3 0.00 0.00 0.00 45 1011.0
20260501161703 34 277 14.5 16.1 0.00 0.00 0.00 46 1011.0
20260501161203 33 251 8.0 12.9 0.00 0.00 0.00 46 1011.0
20260501160703 34 248 12.9 19.3 0.00 0.00 0.00 47 1011.0
20260501160204 33 272 12.9 19.3 0.00 0.00 0.00 47 1011.0
20260501154204 32 239 9.7 12.9 0.00 0.00 0.00 49 1011.0
20260501153703 33 236 8.0 12.9 0.00 0.00 0.00 51 1011.0
20260501153203 32 243 9.7 12.9 0.00 0.00 0.00 50 1011.0
20260501151703 32 207 9.7 12.9 0.00 0.00 0.00 52 1011.0
20260501151204 32 238 8.0 9.7 0.00 0.00 0.00 52 1011.0
20260501150704 32 313 8.0 12.9 0.00 0.00 0.00 52 1011.0
20260501150204 32 282 4.8 9.7 0.00 0.00 0.00 54 1011.0